This is the latest recevied weather packets stored in our database for station/object IZ1UQG-N2. If no packets are shown the sender has not sent any weather packets the latest 10 day(s).
| Time | Temp. | Humidity | Pressure | Rain* | Wind** | Luminosity | Snow |
|---|---|---|---|---|---|---|---|
| 1787609163 | 18.89° C | 89% | 1012.5 hPa | 12.19 mm | - | 0 W/m² | - |
| 1787609103 | 18.89° C | 89% | 1012.6 hPa | 12.19 mm | - | 0 W/m² | - |
| 1787609042 | 18.89° C | 89% | 1012.6 hPa | 12.19 mm | - | 0 W/m² | - |
| 1787608982 | 18.89° C | 89% | 1012.6 hPa | 11.94 mm | - | 0 W/m² | - |
| 1787608922 | 18.89° C | 89% | 1012.5 hPa | 11.94 mm | - | 0 W/m² | - |
| 1787608863 | 18.89° C | 89% | 1012.6 hPa | 11.43 mm | - | 0 W/m² | - |
| 1787608802 | 18.89° C | 89% | 1012.5 hPa | 11.18 mm | - | 0 W/m² | - |
| 1787608744 | 18.89° C | 89% | 1012.5 hPa | 11.18 mm | - | 0 W/m² | - |
| 1787608683 | 18.89° C | 89% | 1012.4 hPa | 10.92 mm | - | 0 W/m² | - |
| 1787608623 | 19.44° C | 89% | 1012.3 hPa | 10.92 mm | - | 0 W/m² | - |
| 1787608563 | 19.44° C | 89% | 1012.4 hPa | 10.67 mm | - | 0 W/m² | - |
| 1787608503 | 19.44° C | 89% | 1012.4 hPa | 10.16 mm | - | 0 W/m² | - |
| 1787608442 | 19.44° C | 90% | 1012.4 hPa | 9.65 mm | - | 0 W/m² | - |
| 1787608382 | 19.44° C | 89% | 1012.5 hPa | 9.14 mm | - | 0 W/m² | - |
| 1787608322 | 19.44° C | 90% | 1012.6 hPa | 8.89 mm | - | 0 W/m² | - |
| 1787608262 | 19.44° C | 89% | 1012.6 hPa | 9.14 mm | - | 0 W/m² | - |
| 1787608202 | 19.44° C | 89% | 1012.7 hPa | 9.14 mm | - | 0 W/m² | - |
| 1787608143 | 19.44° C | 89% | 1012.6 hPa | 8.89 mm | - | 0 W/m² | - |
| 1787608083 | 19.44° C | 89% | 1012.4 hPa | 8.64 mm | - | 0 W/m² | - |
| 1787608023 | 19.44° C | 89% | 1012.2 hPa | 7.87 mm | - | 0 W/m² | - |
| 1787607963 | 19.44° C | 89% | 1012.1 hPa | 6.86 mm | - | 0 W/m² | - |
| 1787607903 | 19.44° C | 89% | 1012 hPa | 6.1 mm | - | 0 W/m² | - |
| 1787607842 | 19.44° C | 89% | 1012 hPa | 5.08 mm | - | 0 W/m² | - |
| 1787607782 | 19.44° C | 89% | 1012.1 hPa | 4.32 mm | - | 0 W/m² | - |
| 1787607722 | 19.44° C | 89% | 1012.3 hPa | 3.56 mm | - | 0 W/m² | - |
* Rain latest hour (hover to see other rain measurements)
** Current wind speed in m/s (hover to see current wind gust speed)